Weather History for CYXE - June, 2013

Change the Weather History Date:

Wednesday, June 26, 2013

  Actual Average Record
Temperature  
Mean Temperature 66 °F -  
Max Temperature 77 °F 77 °F 91 °F (2002)
Min Temperature 55 °F 52 °F 39 °F (2001)
Cooling Degree Days 1    
Growing Degree Days 16 (Base 50)    
Moisture  
Dew Point 59 °F    
Average Humidity 84    
Maximum Humidity 100    
Minimum Humidity 50    
Precipitation  
Precipitation 0.00 in 0.08 in - ()
Sea Level Pressure  
Sea Level Pressure 29.73 in    
Wind  
Wind Speed 6 mph ()    
Max Wind Speed 15 mph    
Max Gust Speed 20 mph    
Visibility 11.5 miles    
Events Fog , Thunderstorm    
Averages and records for this station are not official NWS values.
T = Trace of Precipitation, MM = Missing Value Source: Averaged Metar Reports

Daily Weather History Graph

Daily Weather History Graph

Search for Another Location

Airport or City:

Trip Planner

Search our weather history database for the weather conditions in past years. The results will help you decide how hot, cold, wet, or windy it might be!

Date:

Astronomy

Jun. 26, 2013 Rise Set
Actual Time 4:47 AM CST 9:31 PM CST
Civil Twilight 3:58 AM CST 10:20 PM CST
Nautical Twilight 2:38 AM CST 11:39 PM CST
Astronomical Twilight Sun does not set Sun does not set
Moon 11:18 PM CST (6/26) 9:14 AM CST (6/26)
Length of Visible Light 18h 22m
Length of Day
16h 44m
Waning Gibbous, 85% of the Moon is Illuminated
Jun 26
Waning Gibbous
Jun 29
Last Quarter
Jul 8
New
Jul 15
First Quarter
Jul 22
Full

Hourly Weather History & Observations

Time (CST) Temp. Dew Point Humidity Pressure Visibility Wind Dir Wind Speed Gust Speed Precip Events Conditions
12:00 AM 64.4 °F 62.6 °F 94% 29.67 in 15.0 mi ESE 6.9 mph - N/A   Overcast
1:00 AM 62.6 °F 62.6 °F 100% 29.66 in 15.0 mi SE 5.8 mph - N/A   Mostly Cloudy
2:00 AM 59.0 °F 59.0 °F 100% 29.65 in 15.0 mi ESE 6.9 mph - N/A   Scattered Clouds
3:00 AM 59.0 °F 59.0 °F 100% 29.65 in 15.0 mi SSE 6.9 mph - N/A   Partly Cloudy
4:00 AM 57.2 °F 57.2 °F 100% 29.66 in 15.0 mi South 5.8 mph - N/A   Partly Cloudy
5:00 AM 55.4 °F 53.6 °F 94% 29.67 in 15.0 mi SSW 4.6 mph - N/A   Scattered Clouds
6:00 AM 55.4 °F 53.6 °F 94% 29.67 in 15.0 mi SW 6.9 mph - N/A   Scattered Clouds
6:26 AM 55.4 °F 55.4 °F 100% 29.68 in 15.0 mi West 4.6 mph - N/A   Mostly Cloudy
6:39 AM 55.4 °F 55.4 °F 100% 29.68 in 2.0 mi West 5.8 mph - N/A   Mostly Cloudy
6:44 AM 55.4 °F 55.4 °F 100% 29.68 in 0.5 mi West 5.8 mph - N/A Fog Fog
7:00 AM 57.2 °F 57.2 °F 100% 29.68 in 0.5 mi SW 3.5 mph - N/A Fog Fog
7:13 AM 57.2 °F 57.2 °F 100% 29.68 in 0.2 mi WSW 4.6 mph - N/A Fog Fog
8:00 AM 59.0 °F 59.0 °F 100% 29.68 in 0.5 mi West 4.6 mph - N/A Fog Fog
8:27 AM 59.0 °F 59.0 °F 100% 29.69 in 1.0 mi SW 5.8 mph - N/A   Mist
9:00 AM 60.8 °F 60.8 °F 100% 29.70 in 1.5 mi WSW 6.9 mph - N/A   Overcast
9:09 AM 60.8 °F 60.8 °F 100% 29.70 in 3.0 mi WSW 6.9 mph - N/A   Overcast
10:00 AM 62.6 °F 60.8 °F 94% 29.70 in 10.0 mi WNW 8.1 mph - N/A   Overcast
10:19 AM 64.4 °F 60.8 °F 88% 29.71 in 15.0 mi NW 8.1 mph - N/A   Overcast
11:00 AM 68.0 °F 62.6 °F 83% 29.72 in 15.0 mi WNW 9.2 mph - N/A   Mostly Cloudy
12:00 PM 69.8 °F 60.8 °F 73% 29.72 in 15.0 mi WNW 13.8 mph - N/A   Scattered Clouds
1:00 PM 71.6 °F 62.6 °F 73% 29.73 in 15.0 mi NW 15.0 mph - N/A   Scattered Clouds
2:00 PM 73.4 °F 60.8 °F 65% 29.73 in 15.0 mi NNW 9.2 mph - N/A   Scattered Clouds
3:00 PM 75.2 °F 60.8 °F 61% 29.74 in 15.0 mi WNW 13.8 mph 19.6 mph N/A   Scattered Clouds
4:00 PM 77.0 °F 59.0 °F 54% 29.76 in 15.0 mi NW 15.0 mph - N/A   Mostly Cloudy
5:00 PM 71.6 °F 57.2 °F 60% 29.78 in 15.0 mi WNW 9.2 mph - N/A   Mostly Cloudy
6:00 PM 77.0 °F 57.2 °F 50% 29.78 in 15.0 mi WNW 5.8 mph - N/A   Scattered Clouds
7:00 PM 75.2 °F 57.2 °F 53% 29.80 in 15.0 mi West 4.6 mph - N/A   Scattered Clouds
8:00 PM 71.6 °F 59.0 °F 64% 29.81 in 15.0 mi NW 4.6 mph - N/A   Mostly Cloudy
8:55 PM 68.0 °F 60.8 °F 78% 29.82 in 15.0 mi West 4.6 mph - N/A Thunderstorm Thunderstorm
9:00 PM 68.0 °F 60.8 °F 78% 29.82 in 15.0 mi West 4.6 mph - N/A Thunderstorm Thunderstorm
9:53 PM 64.4 °F 57.2 °F 77% 29.85 in 15.0 mi WSW 6.9 mph - N/A   Mostly Cloudy
10:00 PM 66.2 °F 57.2 °F 73% 29.85 in 15.0 mi West 6.9 mph - N/A   Mostly Cloudy
11:00 PM 62.6 °F 55.4 °F 77% 29.86 in 15.0 mi WNW 5.8 mph - N/A   Mostly Cloudy